Regional Weather Roundup
Issued by NWS

Home | Current Version | Previous Version | Text Only | Print | Product List | Glossary On
Versions: 1 2 3 4 5 6 7 8 9 10 11 12 13 14 15 16 17 18 19 20 21 22 23 24 25 26 27 28 29 30 31 32 33 34 35 36 37 38 39 40 41 42 43 44 45 46 47 48 49 50
922
ASUS43 KLSX 230059
RWRMO

WEATHER SUMMARY FOR MISSOURI
NATIONAL WEATHER SERVICE SPRINGFIELD MO
800 PM CDT SAT APR 22 2017

NOTE: "FAIR" INDICATES FEW OR NO CLOUDS BELOW 12,000 FEET WITH NO
       SIGNIFICANT WEATHER AND/OR OBSTRUCTIONS TO VISIBILITY.
       CURRENT SKY AND/OR WEATHER CONDITIONS ARE NOT AVAILABLE FOR
       CHILLICOTHE AND FARMINGTON.

MOZ001>031-035>038-043-044-053-054-230200-
...NORTHERN AND WESTERN MISSOURI...

CITY           SKY/WX    TMP DP  RH WIND       PRES   REMARKS
KANSAS CTY INT PTCLDY    53  32  44 N8        30.14R
KANSAS C DTWN  PTCLDY    61  29  29 N10       30.12R
LEE`S SUMMIT   CLEAR     58  31  35 N10       30.12R
ST JOSEPH      CLEAR     58  31  35 NE7       30.15S
CHILLICOTHE      N/A     60  29  30 NE9       30.14R
KIRKSVILLE     CLEAR     52  34  50 NE9       30.13S

$$
MOZ066>068-077>081-088>096-101>105-230200-
...SOUTHWEST MISSOURI...

CITY           SKY/WX    TMP DP  RH WIND       PRES   REMARKS
SPRINGFIELD    CLOUDY    49  44  83 N5        30.07R
JOPLIN         CLOUDY    50  43  77 NE3       30.10S
BRANSON        LGT RAIN  46  46 100 N6        30.08R

$$
MOZ032>034-039>042-045>050-055>058-069>072-230200-
...CENTRAL MISSOURI...

CITY           SKY/WX    TMP DP  RH WIND       PRES   REMARKS
COLUMBIA       CLEAR     57  36  45 N10       30.08R
JEFFERSON CITY CLEAR     62  36  37 N6        30.07R
ROLLA          CLOUDY    52  42  69 NE3       30.05R
OSAGE BEACH    CLOUDY    52  48  86 NW3       30.08R

$$
MOZ051-052-059>065-230200-
...EAST CENTRAL MISSOURI...

CITY           SKY/WX    TMP DP  RH WIND       PRES   REMARKS
ST LOUIS INTL  PTCLDY    58  35  42 NE7       30.05R
SPIRIT OF STL  MOCLDY    55  38  52 NE6       30.04R
ST CHARLES     CLEAR     56  36  47 NE7       30.05R

$$
MOZ072>076-082>087-097>100-106>115-230200-
...SOUTH CENTRAL AND SOUTHEAST MISSOURI...

CITY           SKY/WX    TMP DP  RH WIND       PRES   REMARKS
CAPE GIRARDEAU CLOUDY    52  45  77 N12       29.99R
FARMINGTON     CLOUDY    49  43  80 N5        30.04R
POPLAR BLUFF   CLOUDY    51  45  79 N15       29.99R
WEST PLAINS    CLOUDY    49  44  83 N6        30.04R

$$




USA.gov is the U.S. government's official web portal to all federal, state and local government web resources and services.